P/2017 Y3 ( Leonard )

Japanese version
Home page
Updated on February 13, 2018

---------------------------------------------------------------------

* Profile

Discovery Date December 26, 2017
Magnitude 19.8 mag
Discoverer G. J. Leonard (Mount Lemmon)

* Pictures

* Orbital Elements

Epoch 2018 Feb. 11.0 TT = JDT 2458160.5
T 2018 Feb. 11.24875 TT                                 MPCW
q   1.2754963            (2000.0)            P               Q
n   0.03166904     Peri.   67.51838     -0.70391516     +0.68039017
a   9.8941725      Node   153.87690     -0.69035767     -0.72289043
e   0.8710861      Incl.   27.58589     +0.16706206     -0.12041032
P  31.12
From 63 observations 2017 Dec. 26-2018 Jan. 20, mean residual 0".5.

* Magnitudes Graph

        m1 = 16.5 + 5 log d + 10.0 log r

---------------------------------------------------------------------

The orbital elements are published on M.P.E.C. 2018-B155.
The magnitudes graphs are made with Comet for Windows.

---------------------------------------------------------------------

Copyright(C) Seiichi Yoshida (comet@aerith.net). All rights reserved.